Change the Weather History Date:

Monday, December 23, 2013

  Actual Average (KMSP) Record (KMSP)
Temperature  
Mean Temperature 3 °F 18 °F  
Max Temperature 10 °F 25 °F 58 °F (1888)
Min Temperature -4 °F 10 °F -27 °F (1872)
Degree Days  
Heating Degree Days 62 48  
Month to date heating degree days 1018  
Since 1 July heating degree days 2637  
Cooling Degree Days 0 0  
Month to date cooling degree days 0  
Year to date cooling degree days 753  
Moisture  
Dew Point -4 °F    
Average Humidity 79    
Maximum Humidity 86    
Minimum Humidity 68    
Precipitation  
Precipitation 0.00 in 0.04 in 0.53 in (1996)
Month to date precipitation 0.89  
Year to date precipitation 30.34  
Snow  
Snow 0.00 in 0.30 in 6.20 in (1996)
Month to date snowfall 9.0  
Since 1 July snowfall 18.9  
Snow Depth -    
Sea Level Pressure  
Sea Level Pressure 30.33 in    
Wind  
Wind Speed 10 mph (WNW)    
Max Wind Speed 15 mph    
Max Gust Speed 18 mph    
Visibility 4 miles    
Events Snow    
T = Trace of Precipitation, MM = Missing Value Source: NWS Daily Summary

Daily Weather History Graph

Daily Weather History Graph

Search for Another Location

Airport or City:

Trip Planner

Search our weather history database for the weather conditions in past years. The results will help you decide how hot, cold, wet, or windy it might be!

Date:

Astronomy

Dec. 23, 2013 Rise Set
Actual Time 7:46 AM CST 4:31 PM CST
Civil Twilight 7:12 AM CST 5:05 PM CST
Nautical Twilight 6:35 AM CST 5:43 PM CST
Astronomical Twilight 5:59 AM CST 6:19 PM CST
Moon 10:58 PM CST (12/23) 10:57 AM CST (12/23)
Length of Visible Light 9h 53m
Length of Day
8h 45m
Waning Gibbous, 68% of the Moon is Illuminated
Dec 23
Waning Gibbous
Dec 25
Last Quarter
Jan 1
New
Jan 7
First Quarter
Jan 15
Full

Hourly Weather History & Observations

Time (CST) Temp. Windchill Dew Point Humidity Pressure Visibility Wind Dir Wind Speed Gust Speed Precip Events Conditions
12:15 AM 10.9 °F -1.8 °F 7.2 °F 85% 30.17 in 3.0 mi WNW 9.2 mph - N/A Snow Light Snow
12:35 AM 10.4 °F -2.4 °F 6.8 °F 85% 30.17 in 2.5 mi NW 9.2 mph - N/A Snow Light Snow
12:55 AM 10.4 °F -3.3 °F 6.6 °F 85% 30.17 in 2.0 mi WNW 10.4 mph - N/A Snow Light Snow
1:15 AM 10.2 °F -0.6 °F 6.8 °F 86% 30.18 in 1.5 mi WNW 6.9 mph - N/A Snow Light Snow
1:35 AM 9.9 °F -3.1 °F 6.3 °F 85% 30.18 in 1.8 mi WNW 9.2 mph - N/A Snow Light Snow
1:55 AM 9.5 °F -2.6 °F 5.9 °F 85% 30.19 in 1.8 mi WNW 8.1 mph - N/A Snow Light Snow
2:15 AM 9.3 °F -5.4 °F 5.5 °F 85% 30.19 in 1.8 mi WNW 11.5 mph - N/A Snow Light Snow
2:35 AM 8.6 °F -5.5 °F 5.0 °F 85% 30.20 in 1.2 mi WNW 10.4 mph - N/A Snow Light Snow
2:55 AM 7.7 °F -6.6 °F 3.9 °F 85% 30.20 in 2.0 mi WNW 10.4 mph - N/A Snow Light Snow
3:15 AM 7.3 °F -6.2 °F 3.6 °F 85% 30.21 in 1.8 mi West 9.2 mph - N/A Snow Light Snow
3:35 AM 6.6 °F -9.5 °F 2.3 °F 82% 30.21 in 2.5 mi WNW 12.7 mph - N/A Snow Light Snow
3:55 AM 5.9 °F -9.7 °F 1.4 °F 82% 30.21 in 2.5 mi WNW 11.5 mph - N/A Snow Light Snow
4:15 AM 5.4 °F -10.4 °F 1.0 °F 82% 30.21 in 4.0 mi West 11.5 mph - N/A Snow Light Snow
4:35 AM 4.8 °F -10.2 °F 0.5 °F 82% 30.22 in 3.0 mi West 10.4 mph - N/A Snow Light Snow
4:55 AM 4.1 °F -12.0 °F -0.0 °F 83% 30.23 in 3.0 mi WNW 11.5 mph - N/A Snow Light Snow
5:15 AM 3.9 °F -11.3 °F -0.6 °F 82% 30.23 in 3.0 mi WNW 10.4 mph 17.3 mph N/A Snow Light Snow
5:35 AM 3.6 °F -12.6 °F -0.8 °F 82% 30.23 in 3.0 mi WNW 11.5 mph - N/A Snow Light Snow
5:55 AM 3.2 °F -12.2 °F -1.3 °F 82% 30.24 in 3.0 mi WNW 10.4 mph - N/A Snow Light Snow
6:15 AM 3.2 °F -13.1 °F -1.7 °F 80% 30.25 in 5.0 mi WNW 11.5 mph - N/A Snow Light Snow
6:35 AM 2.8 °F -13.5 °F -2.2 °F 79% 30.26 in 4.0 mi WNW 11.5 mph - N/A Snow Light Snow
6:55 AM 2.3 °F -14.2 °F -2.2 °F 81% 30.26 in 4.0 mi WNW 11.5 mph - N/A Snow Light Snow
7:15 AM 2.3 °F -14.2 °F -2.4 °F 81% 30.28 in 3.0 mi NW 11.5 mph - N/A Snow Light Snow
7:35 AM 2.1 °F -14.4 °F -2.7 °F 80% 30.28 in 3.0 mi NW 11.5 mph - N/A Snow Light Snow
7:55 AM 1.8 °F -16.4 °F -3.1 °F 80% 30.29 in 2.5 mi NW 13.8 mph - N/A Snow Light Snow
8:15 AM 1.8 °F -16.4 °F -3.5 °F 79% 30.30 in 1.8 mi NW 13.8 mph - N/A Snow Light Snow
8:35 AM 1.4 °F -16.9 °F -4.0 °F 78% 30.31 in 1.8 mi NW 13.8 mph 17.3 mph N/A Snow Light Snow
8:55 AM 1.4 °F -16.1 °F -4.2 °F 77% 30.31 in 2.0 mi NW 12.7 mph 17.3 mph N/A Snow Light Snow
9:15 AM 1.4 °F -14.5 °F -4.0 °F 78% 30.32 in 1.8 mi WNW 10.4 mph - N/A Snow Light Snow
9:35 AM 1.0 °F -17.3 °F -5.1 °F 75% 30.33 in 2.5 mi NW 13.8 mph 18.4 mph N/A Snow Light Snow
9:55 AM 1.2 °F -14.7 °F -5.4 °F 74% 30.33 in 2.5 mi NW 10.4 mph - N/A Snow Light Snow
10:15 AM 1.4 °F -16.1 °F -5.4 °F 73% 30.34 in 2.5 mi NW 12.7 mph - N/A Snow Light Snow
10:35 AM 1.4 °F -14.5 °F -5.8 °F 72% 30.34 in 2.5 mi NW 10.4 mph - N/A Snow Light Snow
10:55 AM 1.0 °F -16.6 °F -6.0 °F 72% 30.34 in 2.5 mi NW 12.7 mph 18.4 mph N/A Snow Light Snow
11:15 AM 1.0 °F -16.6 °F -6.3 °F 71% 30.34 in 4.0 mi NW 12.7 mph - N/A Snow Light Snow
11:35 AM 1.2 °F -17.8 °F -6.2 °F 71% 30.34 in 3.0 mi NW 15.0 mph - N/A Snow Light Snow
11:55 AM 1.2 °F -15.6 °F -6.0 °F 72% 30.35 in 5.0 mi NW 11.5 mph - N/A Snow Light Snow
12:15 PM 1.4 °F -14.5 °F -6.0 °F 71% 30.34 in 7.0 mi NW 10.4 mph - N/A Snow Light Snow
12:35 PM 1.2 °F -16.4 °F -6.3 °F 71% 30.34 in 4.0 mi WNW 12.7 mph - N/A Snow Light Snow
12:55 PM 1.4 °F -15.3 °F -6.3 °F 70% 30.35 in 7.0 mi NW 11.5 mph - N/A Snow Light Snow
1:15 PM 1.9 °F -14.7 °F -5.6 °F 71% 30.35 in 2.5 mi NW 11.5 mph - N/A Snow Light Snow
1:35 PM 2.7 °F -13.8 °F -5.6 °F 68% 30.35 in 7.0 mi WNW 11.5 mph - N/A Snow Light Snow
1:55 PM 1.9 °F -16.2 °F -5.6 °F 71% 30.35 in 10.0 mi NW 13.8 mph - N/A   Overcast
2:15 PM 2.5 °F -14.8 °F -5.3 °F 70% 30.36 in 2.5 mi NW 12.7 mph - N/A Snow Light Snow
2:35 PM 1.4 °F -16.1 °F -6.2 °F 71% 30.36 in 5.0 mi NW 12.7 mph - N/A Snow Light Snow
2:55 PM 1.4 °F -16.1 °F -5.6 °F 72% 30.37 in 4.0 mi NW 12.7 mph - N/A Snow Light Snow
3:15 PM 1.4 °F -14.5 °F -5.3 °F 74% 30.38 in 3.0 mi NW 10.4 mph - N/A Snow Light Snow
3:35 PM 1.4 °F -12.5 °F -4.5 °F 76% 30.39 in 4.0 mi NW 8.1 mph - N/A Snow Light Snow
3:55 PM 1.0 °F -14.9 °F -4.4 °F 78% 30.40 in 2.0 mi NW 10.4 mph - N/A Snow Light Snow
4:15 PM 0.5 °F -16.5 °F -4.9 °F 78% 30.40 in 1.8 mi NW 11.5 mph - N/A Snow Light Snow
4:35 PM -0.0 °F -16.3 °F -5.3 °F 79% 30.41 in 3.0 mi NW 10.4 mph - N/A Snow Light Snow
4:55 PM -1.3 °F -18.7 °F -6.7 °F 78% 30.42 in 5.0 mi NW 11.5 mph - N/A Snow Light Snow
5:15 PM -2.2 °F -15.6 °F -7.6 °F 78% 30.42 in 7.0 mi WNW 6.9 mph - N/A Snow Light Snow
5:35 PM -3.6 °F -15.9 °F -8.5 °F 80% 30.42 in 7.0 mi NW 5.8 mph - N/A Snow Light Snow
5:55 PM -3.8 °F -14.4 °F -8.5 °F 80% 30.43 in 7.0 mi West 4.6 mph - N/A Snow Light Snow
6:15 PM -4.9 °F -15.6 °F -9.0 °F 82% 30.43 in 7.0 mi West 4.6 mph - N/A Snow Light Snow
6:35 PM -4.5 °F -16.9 °F -8.5 °F 83% 30.44 in 10.0 mi West 5.8 mph - N/A Snow Light Snow
6:55 PM -2.6 °F -16.0 °F -6.9 °F 82% 30.45 in 10.0 mi WNW 6.9 mph - N/A Snow Light Snow
7:15 PM -1.5 °F -14.7 °F -6.3 °F 80% 30.45 in 7.0 mi WNW 6.9 mph - N/A Snow Light Snow
7:35 PM -1.3 °F -14.5 °F -6.2 °F 80% 30.45 in 7.0 mi NW 6.9 mph - N/A Snow Light Snow
7:55 PM -0.8 °F -15.1 °F -5.8 °F 79% 30.46 in 4.0 mi NW 8.1 mph - N/A Snow Light Snow
8:15 PM -0.8 °F -15.1 °F -6.0 °F 79% 30.45 in 2.5 mi NW 8.1 mph - N/A Snow Light Snow
8:35 PM -1.5 °F -17.1 °F -6.3 °F 80% 30.45 in 3.0 mi NW 9.2 mph - N/A Snow Light Snow
8:55 PM -1.7 °F -13.5 °F -6.5 °F 80% 30.45 in 2.5 mi NW 5.8 mph - N/A Snow Light Snow
9:15 PM -2.6 °F -14.6 °F -7.2 °F 80% 30.45 in 2.5 mi NW 5.8 mph - N/A Snow Light Snow
9:35 PM -3.6 °F -12.0 °F -8.0 °F 82% 30.44 in 2.0 mi NW 3.5 mph - N/A Snow Light Snow
9:55 PM -4.0 °F -12.4 °F -8.0 °F 83% 30.45 in 1.5 mi WNW 3.5 mph - N/A Snow Light Snow
10:15 PM -3.6 °F -12.0 °F -7.6 °F 83% 30.46 in 7.0 mi West 3.5 mph - N/A Snow Light Snow
10:35 PM -2.7 °F -11.0 °F -6.9 °F 82% 30.45 in 5.0 mi WNW 3.5 mph - N/A Snow Light Snow
10:55 PM -2.7 °F -11.0 °F -7.6 °F 80% 30.45 in 5.0 mi WNW 3.5 mph - N/A Snow Light Snow
11:15 PM -2.4 °F - -6.9 °F 81% 30.45 in 4.0 mi Calm Calm - N/A Snow Light Snow
11:35 PM -2.2 °F -10.4 °F -6.9 °F 80% 30.44 in 4.0 mi WNW 3.5 mph - N/A Snow Light Snow
11:55 PM -2.2 °F -12.5 °F -7.4 °F 78% 30.44 in 10.0 mi WNW 4.6 mph - N/A Snow Light Snow